Погода в Шамбери

Франция     45°34′17″N   5°55′03″E
темп.,
°C
ветер,
м/с
пор.,
м/с
влажн.,
%
обл.,
%
осадки,
мм/ч
давл.,
гПа
погр.,
м
6 марта, сб
сб601:00+3ссз229278 0.1 1023209
04:00+3ссз1292100 0.0 1024187
07:00+1с119496 0.0 102583
10:00+6ссз116982 0.0 1026457
13:00+10сз215752 0.0 1025685
16:00+10ссз22604 0.0 1024717
19:00+4ссз11853 0.0 102522
22:00+4ююв118639 0.0 102722
7 марта, вс
вс701:00+5вюв118470 0.3 102756
04:00+3вюв119487 0.2 102630
07:00+4всв129594 3.3 1025123
10:00+4всв1193100 1.1 1024163
13:00+11с116993 1.1 1022685
16:00+10зсз116599 0.3 1020860
19:00+6с128999 1.5 1020106
22:00+5юв119199 0.5 102051
8 марта, пн
пн801:00+3в119594 0.5 102022
04:00+3вюв119487 0.0 101927
07:00+2ссв119478 0.0 101923
10:00+6ссз128368 0.1 1018336
13:00+8сз227375 0.4 1018780
16:00+8зсз227792 0.8 1016577
19:00+4з119369 1.3 101723
22:00+2зсз119515 0.0 101923
9 марта, вт
вт901:00+2з119718 0.1 101926
04:00+1зсз119751 0.0 101932
07:000зсз119848 0.0 101937
10:00+3сз128785 0.0 1019308
13:00+5зсз228192 0.1 1019476
16:00+7зсз127084 0.1 1017698
19:00+2зсз118761 0.1 102022
22:000юв00910 0.0 102222
10 марта, ср
ср1001:000ссз00930 0.0 102321
04:00−1юв11941 0.0 102321
07:00−1в00930 0.0 102521
10:00+6с11630 0.0 1024385
13:00+10зсз11480 0.0 1022892
16:00+10сз215059 0.0 1021872
19:00+3ююз008030 0.0 102322
22:00+3юв12780 0.0 102422